Regional Weather Roundup
Issued by NWS

Home | Current Version | Previous Version | Graphics & Text | Print | Product List | Glossary On
Versions: 1 2 3 4 5 6 7 8 9 10 11 12 13 14 15 16 17 18 19 20 21 22 23 24 25 26 27 28 29 30 31 32 33 34 35 36 37 38 39 40 41 42 43 44 45 46 47 48 49 50
000
ASUS44 KMEG 250600
RWRTN
TENNESSEE HOURLY STATE WEATHER ROUNDUP
NATIONAL WEATHER SERVICE MEMPHIS TN
1200 AM CST SUN JAN 25 2015

TNZ002-004-019-021-049-052-054-088>092-250700-
WEST TENNESSEE

CITY           SKY/WX    TMP DP  RH WIND       PRES   REMARKS
MEMPHIS INTL   CLEAR     38  32  79 VRB6      29.89F WCI  33
NWS MEMPHIS      N/A     42 N/A N/A MISG        N/A
JACKSON        CLEAR     40  32  73 S12       29.88F WCI  33
DYERSBURG      CLEAR     41  23  48 S5        29.88S
UNION CITY     CLEAR     34  30  86 S5        29.83F WCI  30
PARIS          CLEAR     34  28  80 S6        29.85F WCI  29
LEXINGTON      CLEAR     36  28  75 S3        29.88F
SAVANNAH       CLEAR     39  32  75 SW7       29.92S WCI  34
$$

TNZ008-025-027-028-033-062-065-066-250700-
NORTH MIDDLE TENNESSEE

CITY           SKY/WX    TMP DP  RH WIND       PRES   REMARKS
NASHVILLE      CLEAR     36  29  75 S6        29.90S WCI  31
CLARKSVILLE    CLEAR     40  29  64 SW6       29.85F
COOKEVILLE     CLEAR     36  30  80 S7        29.89F WCI  30
CROSSVILLE     CLEAR     33  27  78 SW6       29.90F WCI  28
$$

TNZ061-075-076-078-094-096-097-250700-
SOUTH MIDDLE TENNESSEE

CITY           SKY/WX    TMP DP  RH WIND       PRES   REMARKS
TULLAHOMA      CLEAR     34  28  80 CALM      29.92F
WINCHESTER     CLEAR     37  28  70 S3        29.93F
SHELBYVILLE    CLEAR     34  30  86 S7        29.93S WCI  28
$$

TNZ017-018-042-046-047-250700-
NORTHEAST TENNESSEE

CITY           SKY/WX    TMP DP  RH WIND       PRES   REMARKS
TRI CITIES     PTCLDY    32  27  81 CALM      29.89F
$$

TNZ012-013-036-069-073-074-250700-
CENTRAL EAST TENNESSEE

CITY           SKY/WX    TMP DP  RH WIND       PRES   REMARKS
KNOXVILLE      CLEAR     34  27  75 SW12      29.93S WCI  25
OAK RIDGE      CLEAR     31  27  85 CALM      29.94S
$$

TNZ083-085-099-250700-
SOUTHEAST TENNESSEE

CITY           SKY/WX    TMP DP  RH WIND       PRES   REMARKS
CHATTANOOGA    CLEAR     38  29  70 CALM      29.95F
$$

SKY/WX REPORTED AS FAIR MEANS FEW OR NO CLOUDS BELOW
12 THOUSAND FEET.




USA.gov is the U.S. government's official web portal to all federal, state and local government web resources and services.